[[{"header":{"parameterUnit":"m.s-1","parameterCategory":1,"la1":30.2991,"la2":30.254,"lo1":-89.0895,"lo2":-89.0444,"dy":0.0017,"dx":0.0017,"nx":28,"ny":28,"refTime":"2024-02-18T03:00:00:Z","depth":0,"parameterNumber":2,"parameterNumberName":"U-component_of_WINDS"},"data":[0,0,0,0,0,0,0,0,0,0,0,0,0,0,0,0,0,0,0,0,0,0,0,0,0,0,0,0,0,0,0,0,0,0,0,0,0,0,0,0,0,0,0,0,0,0,0,0,0,0,0,0,0,0,0,0,0,0,-0.4498,-0.4498,0,-0.4437,-0.4436,-0.4435,-0.4352,-0.4351,-0.4349,-0.4348,-0.4286,-0.4286,-0.4285,0,0,0,0,0,0,0,0,0,0,0,0,0,-0.4546,-0.4546,-0.4499,-0.4498,-0.4497,-0.4437,-0.4436,-0.4435,-0.4352,-0.435,-0.4349,-0.4347,-0.4286,-0.4286,-0.4285,0,0,0,0,0,0,0,0,0,0,0,0,0,-0.4509,-0.4546,-0.4499,-0.4448,-0.4443,-0.4437,-0.4436,-0.4435,-0.4353,-0.435,-0.4348,-0.4346,-0.4286,-0.4286,-0.4285,-0.4323,0,0,-0.4283,-0.4283,0,0,0,0,0,0,0,0,-0.4511,-0.4507,-0.4456,-0.4452,-0.4446,-0.44,-0.443,-0.4397,-0.4353,-0.4387,-0.4348,-0.4345,-0.4326,-0.4322,-0.4315,-0.4321,-0.4318,-0.4283,-0.4283,-0.4283,-0.4283,0,0,0,0,0,0,0,-0.4514,-0.451,-0.4474,-0.4456,-0.4449,-0.4429,-0.4422,-0.4423,-0.4369,-0.4384,-0.4378,-0.4371,-0.4322,-0.4315,-0.4313,-0.4317,-0.4283,-0.4283,-0.4283,-0.4282,-0.4352,-0.4354,0,0,0,0,0,0,-0.4524,-0.4512,-0.4476,-0.4472,-0.4474,-0.443,-0.4422,-0.4417,-0.4368,-0.4359,-0.4373,-0.4368,-0.4317,-0.4313,-0.431,-0.4353,-0.4283,-0.4282,-0.4282,-0.435,-0.4352,-0.4355,0,0,0,0,0,0,-0.4525,-0.4521,-0.4478,-0.4491,-0.4483,-0.4431,-0.4427,-0.4417,-0.441,-0.436,-0.435,-0.4376,-0.4315,-0.4311,-0.4321,-0.4349,-0.4282,-0.4282,-0.4347,-0.4351,-0.4354,-0.4438,0,0,0,0,0,0,-0.4527,-0.4522,-0.4536,-0.4491,-0.4483,-0.449,-0.4428,-0.4417,-0.4409,-0.4401,-0.4361,-0.4352,-0.4313,-0.4322,-0.432,-0.4347,-0.4281,-0.4345,-0.4349,-0.4353,-0.4432,-0.4443,-0.4453,0,0,0,0,0,-0.4529,-0.4563,-0.4537,-0.4533,-0.4499,-0.4492,-0.4487,-0.4442,-0.4411,-0.4425,-0.4393,-0.4353,-0.4346,-0.4324,-0.4321,-0.4348,-0.4343,-0.4348,-0.4352,-0.4428,-0.4441,-0.4453,0,0,0,0,0,0,-0.4612,-0.4556,-0.4527,-0.4547,-0.4525,-0.4478,-0.4494,-0.4458,-0.4444,-0.4438,-0.4382,-0.4374,-0.4391,-0.437,-0.4346,-0.4383,-0.4338,-0.4343,-0.4397,-0.4409,-0.4419,-0.4425,-0.4281,0,0,0,0,0,-0.4633,-0.4631,-0.4582,-0.4604,-0.4595,-0.4547,-0.4541,-0.4509,-0.4484,-0.4474,-0.4443,-0.4421,-0.4413,-0.441,-0.44,-0.4428,-0.4419,-0.4446,-0.4456,-0.4465,-0.447,-0.4484,-0.4496,-0.4371,-0.4371,-0.4371,0,0,-0.4676,-0.4645,-0.4647,-0.462,-0.4599,-0.46,-0.4539,-0.4542,-0.4541,-0.4474,-0.4482,-0.4459,-0.443,-0.445,-0.4457,-0.4433,-0.4502,-0.4471,-0.4479,-0.4479,-0.4491,-0.4503,-0.4513,-0.4374,-0.4374,-0.4373,0,0,-0.4754,-0.473,-0.4746,-0.4726,-0.4695,-0.4663,-0.4667,-0.4625,-0.4607,-0.4614,-0.4564,-0.4563,-0.4551,-0.4533,-0.4522,-0.4594,-0.4557,-0.4592,-0.4648,-0.4662,-0.4672,-0.468,-0.4707,-0.4717,-0.4597,-0.4598,-0.4598,0,-0.4812,-0.4809,-0.4759,-0.4765,-0.4755,-0.4694,-0.4711,-0.4694,-0.4662,-0.4656,-0.463,-0.4615,-0.4591,-0.4606,-0.4623,-0.4616,-0.462,-0.4597,-0.4674,-0.4682,-0.469,-0.4715,-0.4725,-0.4602,-0.4602,-0.4601,-0.4601,0,-0.4882,-0.4881,-0.4898,-0.4868,-0.486,-0.4872,-0.4824,-0.4822,-0.4789,-0.476,-0.4768,-0.4738,-0.4721,-0.4722,-0.4691,-0.4733,-0.4719,-0.4684,-0.4638,-0.4707,-0.473,-0.4739,-0.4609,-0.4607,-0.4606,-0.4605,0,0,-0.5012,-0.4954,-0.4961,-0.4947,-0.4908,-0.4907,-0.4916,-0.4899,-0.4899,-0.4878,-0.4885,-0.4877,-0.4844,-0.4832,-0.4798,-0.4811,-0.4871,-0.4775,-0.4773,-0.4795,-0.4917,-0.4945,-0.4956,-0.4846,-0.4847,-0.4848,-0.492,0,-0.5084,-0.5095,-0.5051,-0.5074,-0.5073,-0.5015,-0.5022,-0.5,-0.4972,-0.4968,-0.4938,-0.4933,-0.489,-0.4883,-0.4893,-0.4862,-0.4895,-0.4856,-0.4852,-0.4853,-0.4863,-0.4968,-0.4997,-0.5066,-0.4928,-0.493,-0.4931,0,-0.5169,-0.5153,-0.5177,-0.5137,-0.5135,-0.5142,-0.5124,-0.512,-0.5094,-0.5073,-0.506,-0.502,-0.5027,-0.4982,-0.499,-0.4965,-0.496,-0.4945,-0.4947,-0.4946,-0.4897,-0.4971,-0.5086,-0.5097,-0.4944,-0.4943,-0.4942,0,-0.5263,-0.5248,-0.526,-0.5249,-0.5203,-0.521,-0.5191,-0.5162,-0.5155,-0.5139,-0.5134,-0.5119,-0.5112,-0.5101,-0.5059,-0.503,-0.5073,-0.5025,-0.5057,-0.5059,-0.507,-0.507,-0.5188,-0.5065,-0.5065,-0.5065,-0.5065,0,-0.5349,-0.5366,-0.5301,-0.5309,-0.5326,-0.5275,-0.5294,-0.5269,-0.5244,-0.5246,-0.5194,-0.5197,-0.5141,-0.5138,-0.5105,-0.5118,-0.5114,-0.5099,-0.509,-0.5104,-0.5107,-0.5102,-0.5096,-0.5068,-0.5067,-0.5067,-0.5066,0,-0.5458,-0.5415,-0.5424,-0.5379,-0.5369,-0.5384,-0.5345,-0.5351,-0.532,-0.5324,-0.5321,-0.5274,-0.5268,-0.5224,-0.5209,-0.5186,-0.5212,-0.5193,-0.5222,-0.5216,-0.5252,-0.525,-0.5371,-0.5385,-0.5253,-0.5254,-0.5256,0,-0.5516,-0.5527,-0.5484,-0.5481,-0.5465,-0.5461,-0.5454,-0.5404,-0.5399,-0.5369,-0.5379,-0.5368,-0.5358,-0.5351,-0.5316,-0.5304,-0.5285,-0.5328,-0.5283,-0.5297,-0.5287,-0.5288,-0.5289,-0.5339,-0.534,-0.5342,-0.5343,0,-0.5624,-0.5602,-0.5594,-0.5578,-0.5571,-0.5556,-0.5538,-0.5539,-0.5484,-0.5481,-0.5474,-0.5466,-0.5449,-0.5441,-0.5422,-0.5403,-0.5365,-0.5357,-0.5365,-0.538,-0.5396,-0.5389,-0.525,-0.5355,-0.5354,-0.5353,-0.5352,-0.5352,-0.571,-0.5718,-0.5688,-0.5681,-0.5662,-0.5646,-0.565,-0.5619,-0.5613,-0.5596,-0.5566,-0.5564,-0.5537,-0.5509,-0.5493,-0.5491,-0.5468,-0.5478,-0.5481,-0.5485,-0.5493,-0.5395,-0.5487,-0.5487,-0.5486,-0.5486,-0.5486,0,-0.5817,-0.5795,-0.5788,-0.5765,-0.5759,-0.5722,-0.57,-0.5698,-0.5697,-0.5675,-0.5665,-0.5658,-0.5649,-0.5613,-0.56,-0.5606,-0.5588,-0.5604,-0.5604,-0.56,-0.5513,-0.5509,-0.5619,-0.5619,-0.5619,-0.5619,-0.5619,-0.5619,-0.5871,-0.5883,-0.5858,-0.586,-0.5838,-0.5835,-0.5826,-0.5812,-0.5795,-0.5789,-0.5781,-0.5757,-0.5729,-0.5714,-0.5705,-0.5694,-0.5693,-0.5716,-0.57,-0.5619,-0.5606,-0.5594,-0.559,-0.5715,-0.5715,-0.5787,-0.5788,-0.5788]},{"header":{"parameterUnit":"m.s-1","parameterCategory":1,"la1":30.2991,"la2":30.254,"lo1":-89.0895,"lo2":-89.0444,"dy":0.0017,"dx":0.0017,"nx":28,"ny":28,"refTime":"2024-02-18T03:00:00:Z","depth":0,"parameterNumber":3,"parameterNumberName":"V-component_of_WINDS"},"data":[0,0,0,0,0,0,0,0,0,0,0,0,0,0,0,0,0,0,0,0,0,0,0,0,0,0,0,0,0,0,0,0,0,0,0,0,0,0,0,0,0,0,0,0,0,0,0,0,0,0,0,0,0,0,0,0,0,0,-0.4184,-0.4184,0,-0.4202,-0.4203,-0.4203,-0.4189,-0.4188,-0.4187,-0.4187,-0.4206,-0.4207,-0.4208,0,0,0,0,0,0,0,0,0,0,0,0,0,-0.4136,-0.4137,-0.4184,-0.4184,-0.4184,-0.4202,-0.4203,-0.4203,-0.4189,-0.4188,-0.4187,-0.4187,-0.4206,-0.4207,-0.4209,0,0,0,0,0,0,0,0,0,0,0,0,0,-0.4156,-0.4137,-0.4184,-0.4179,-0.4179,-0.4202,-0.4203,-0.4203,-0.4189,-0.4188,-0.4187,-0.4186,-0.4205,-0.4207,-0.4209,-0.4237,0,0,-0.4214,-0.4214,0,0,0,0,0,0,0,0,-0.4154,-0.4157,-0.418,-0.418,-0.4179,-0.4192,-0.4193,-0.4215,-0.4189,-0.4185,-0.4187,-0.4186,-0.4202,-0.4204,-0.421,-0.4238,-0.4239,-0.4214,-0.4215,-0.4216,-0.4216,0,0,0,0,0,0,0,-0.4153,-0.4157,-0.4191,-0.418,-0.418,-0.4176,-0.4178,-0.4197,-0.4199,-0.4185,-0.4184,-0.4187,-0.4202,-0.4208,-0.421,-0.4239,-0.4214,-0.4215,-0.4216,-0.4217,-0.4293,-0.4294,0,0,0,0,0,0,-0.4152,-0.4155,-0.419,-0.4192,-0.4164,-0.4178,-0.418,-0.4189,-0.4199,-0.4199,-0.4188,-0.4186,-0.4206,-0.4208,-0.4211,-0.4246,-0.4216,-0.4217,-0.4218,-0.4292,-0.4293,-0.4294,0,0,0,0,0,0,-0.4151,-0.4155,-0.419,-0.4173,-0.4177,-0.418,-0.419,-0.419,-0.4196,-0.42,-0.42,-0.4194,-0.4205,-0.4208,-0.4231,-0.4246,-0.4218,-0.4219,-0.4291,-0.4292,-0.4294,-0.4316,0,0,0,0,0,0,-0.415,-0.4155,-0.4166,-0.4174,-0.4178,-0.421,-0.4191,-0.4191,-0.4199,-0.4197,-0.4206,-0.4206,-0.4205,-0.4229,-0.4233,-0.4248,-0.4221,-0.429,-0.4292,-0.4293,-0.4314,-0.4318,-0.4322,0,0,0,0,0,-0.4148,-0.4171,-0.4167,-0.4171,-0.4192,-0.4211,-0.4213,-0.4211,-0.42,-0.4211,-0.4214,-0.4206,-0.4244,-0.4231,-0.4235,-0.4252,-0.4289,-0.4291,-0.4293,-0.4312,-0.4317,-0.4322,0,0,0,0,0,0,-0.4166,-0.4172,-0.4167,-0.4194,-0.4202,-0.4208,-0.4222,-0.4216,-0.4228,-0.4226,-0.4222,-0.4224,-0.4248,-0.4252,-0.4238,-0.428,-0.4264,-0.4268,-0.4277,-0.4282,-0.4286,-0.4285,-0.4222,0,0,0,0,0,-0.4172,-0.4187,-0.4192,-0.4215,-0.4219,-0.422,-0.4228,-0.4225,-0.4234,-0.4237,-0.4241,-0.425,-0.4264,-0.4273,-0.4286,-0.4314,-0.4316,-0.4327,-0.4331,-0.4334,-0.4338,-0.4354,-0.4359,-0.4302,-0.4302,-0.4302,0,0,-0.4187,-0.4192,-0.4202,-0.4218,-0.4224,-0.424,-0.4223,-0.424,-0.4251,-0.424,-0.4262,-0.4265,-0.4274,-0.43,-0.4311,-0.4304,-0.4353,-0.4337,-0.434,-0.4341,-0.4357,-0.4362,-0.4367,-0.4304,-0.4303,-0.4303,0,0,-0.4222,-0.4227,-0.4247,-0.4253,-0.4263,-0.4263,-0.4268,-0.4275,-0.4277,-0.4299,-0.4291,-0.4304,-0.4327,-0.4335,-0.4341,-0.4378,-0.4372,-0.4382,-0.4404,-0.4419,-0.4424,-0.4428,-0.4442,-0.4448,-0.4386,-0.4386,-0.4386,0,-0.4239,-0.4262,-0.4258,-0.4276,-0.4284,-0.4273,-0.4294,-0.43,-0.4313,-0.4319,-0.431,-0.4339,-0.4345,-0.4373,-0.4382,-0.4387,-0.4393,-0.4382,-0.4423,-0.4427,-0.4431,-0.4445,-0.445,-0.4387,-0.4387,-0.4387,-0.4387,0,-0.4283,-0.4299,-0.4314,-0.4327,-0.4336,-0.4355,-0.4355,-0.4364,-0.4361,-0.4362,-0.4385,-0.4391,-0.4405,-0.4411,-0.4407,-0.4438,-0.4434,-0.4424,-0.4408,-0.4438,-0.4451,-0.4456,-0.4389,-0.4388,-0.4388,-0.4388,0,0,-0.4331,-0.4341,-0.4347,-0.4353,-0.4362,-0.4375,-0.4393,-0.4407,-0.4416,-0.4425,-0.4441,-0.4461,-0.4452,-0.446,-0.4457,-0.447,-0.4501,-0.4459,-0.4459,-0.4468,-0.4537,-0.4546,-0.4552,-0.4496,-0.4497,-0.4498,-0.4537,0,-0.4367,-0.44,-0.4397,-0.4428,-0.4443,-0.4433,-0.4449,-0.4457,-0.4458,-0.4471,-0.4473,-0.4488,-0.4474,-0.4479,-0.4492,-0.4495,-0.4515,-0.4491,-0.4512,-0.4513,-0.4512,-0.4558,-0.4567,-0.4604,-0.4542,-0.4543,-0.4543,0,-0.4414,-0.4425,-0.4458,-0.4466,-0.4472,-0.4487,-0.4499,-0.4512,-0.452,-0.452,-0.4528,-0.4523,-0.4542,-0.4525,-0.4551,-0.4535,-0.4543,-0.4545,-0.4547,-0.455,-0.4531,-0.4564,-0.4615,-0.4622,-0.4551,-0.455,-0.455,0,-0.4448,-0.447,-0.4493,-0.4499,-0.4507,-0.4518,-0.4522,-0.453,-0.4538,-0.4549,-0.4555,-0.4568,-0.4575,-0.4585,-0.4584,-0.4571,-0.4611,-0.4593,-0.4613,-0.4613,-0.4623,-0.4623,-0.4678,-0.4625,-0.4625,-0.4625,-0.4625,0,-0.449,-0.4511,-0.4509,-0.4523,-0.4546,-0.4542,-0.4565,-0.4568,-0.4574,-0.4589,-0.458,-0.4594,-0.4591,-0.4604,-0.4603,-0.4626,-0.4629,-0.463,-0.463,-0.4632,-0.4632,-0.4638,-0.4637,-0.4626,-0.4626,-0.4626,-0.4626,0,-0.4532,-0.4531,-0.4556,-0.4562,-0.4564,-0.4581,-0.4586,-0.46,-0.46,-0.4619,-0.4623,-0.4624,-0.464,-0.4639,-0.4657,-0.4656,-0.4685,-0.468,-0.4682,-0.4682,-0.4702,-0.4701,-0.4764,-0.4773,-0.4713,-0.4714,-0.4714,0,-0.456,-0.4576,-0.4584,-0.4593,-0.4598,-0.4613,-0.4622,-0.4618,-0.4628,-0.4638,-0.4651,-0.4666,-0.4678,-0.4704,-0.4706,-0.472,-0.4717,-0.4738,-0.4719,-0.4721,-0.4719,-0.4719,-0.4721,-0.4743,-0.4744,-0.4744,-0.4745,0,-0.461,-0.4609,-0.4622,-0.4635,-0.4646,-0.4656,-0.4665,-0.4673,-0.4671,-0.4682,-0.4698,-0.4707,-0.4726,-0.4741,-0.4754,-0.4758,-0.4752,-0.475,-0.4756,-0.4759,-0.476,-0.4762,-0.4694,-0.4749,-0.4749,-0.4748,-0.4748,-0.4748,-0.4647,-0.4661,-0.4669,-0.4684,-0.469,-0.4699,-0.4713,-0.4715,-0.4728,-0.4743,-0.474,-0.4758,-0.4766,-0.4783,-0.4788,-0.4803,-0.4795,-0.4803,-0.4805,-0.4808,-0.4811,-0.4756,-0.4805,-0.4805,-0.4805,-0.4805,-0.4805,0,-0.4698,-0.4702,-0.4716,-0.473,-0.4742,-0.4733,-0.4743,-0.4754,-0.477,-0.4778,-0.479,-0.4809,-0.4824,-0.4827,-0.4841,-0.4853,-0.485,-0.4857,-0.4857,-0.4858,-0.4816,-0.4811,-0.4859,-0.4859,-0.4859,-0.4859,-0.4859,-0.4859,-0.4726,-0.475,-0.475,-0.4776,-0.4781,-0.4799,-0.4805,-0.4814,-0.482,-0.4842,-0.4854,-0.4856,-0.4862,-0.4877,-0.489,-0.4891,-0.4897,-0.4906,-0.4905,-0.4866,-0.4861,-0.4856,-0.4851,-0.4907,-0.4907,-0.4946,-0.4947,-0.4947]}]]